Weather Roundup
Issued by NWS

Home | Current Version | Previous Version | Text Only | Print | Product List | Glossary On
Versions: 1 2 3 4 5 6 7 8 9 10 11 12 13 14 15 16 17 18 19 20 21 22 23 24 25 26 27 28 29 30 31 32 33 34 35 36 37 38 39 40 41 42 43 44 45 46 47 48 49 50
768
NZUS93 KARX 292359
HRRWXR

CURRENT HOURLY OBSERVATIONS ACROSS
MUCH OF THE UPPER MISSISSIPPI VALLEY
NATIONAL WEATHER SERVICE LA CROSSE WI
700 PM CDT MON MAY 29 2017


...SOUTHEAST MINNESOTA...


CITY           SKY/WX    TMP DP  RH WIND       PRES   REMARKS
ROCHESTER      MOSUNNY   58  49  72 W21G30    29.87S
ROCHESTER/MAYO MOCLDY    61  47  60 W13G23    29.86R
WINONA         CLOUDY    59  48  67 NW9       29.84R
AUSTIN         PTSUNNY   61  46  59 W17G24    29.89S
ALBERT LEA     PTSUNNY   61  52  72 W9G16     29.90S
DODGE CENTER   PTSUNNY   59  48  67 W16       29.86S
PRESTON        MOSUNNY   58  46  64 W21       29.88S
OWATONNA       MOSUNNY   63  45  51 NW18      29.87S
FARIBAULT      PTSUNNY   63  46  55 NW13G18   29.87S
$$

...ELSEWHERE IN MINNESOTA...


CITY           SKY/WX    TMP DP  RH WIND       PRES   REMARKS
MINNEAPOLIS    PTSUNNY   63  44  50 NW17G25   29.85R
INTNL FALLS    CLOUDY    52  39  61 NW13      29.75S
DULUTH         PTSUNNY   55  45  68 NW17G23   29.75S
RED WING       CLOUDY    61  48  63 W9        29.82S
REDWOOD FALLS  CLOUDY    61  45  55 NW12G23   29.91S
MANKATO        PTSUNNY   62  47  57 W15       29.89S
WORTHINGTON    CLOUDY    62  45  53 NW17G23   29.96F
FAIRMONT       LGT RAIN  55  50  83 NW14      29.94R
$$

...SOUTHWEST WISCONSIN...


CITY           SKY/WX    TMP DP  RH WIND       PRES   REMARKS
LA CROSSE      PTSUNNY   64  51  62 W16       29.82R
PRAIRIE DU CHI PTSUNNY   69  45  42 W15G22    29.84S
BOSCOBEL       SUNNY     68  47  46 NW12G18   29.84S
LONE ROCK      CLOUDY    66  45  45 NW17G23   29.84R
PLATTEVILLE    MOSUNNY   68  46  45 W14G24    29.85S
FORT MC COY    MOSUNNY   60  53  79 W3        29.83S
CAMP DOUGLAS   CLOUDY    57  52  82 W12       29.81F
MAUSTON-NEW LI CLOUDY    60  51  70 W9        29.82F
VIROQUA        FAIR      62  46  56 MISG      29.84S
WIS DELLS      TSTM      53  47  81 NW5G25    29.84R
$$

...ELSEWHERE IN WISCONSIN...


CITY           SKY/WX    TMP DP  RH WIND       PRES   REMARKS
MILWAUKEE      PTSUNNY   70  43  37 W14       29.82R
MADISON        MOSUNNY   65  44  46 NW7       29.82R
GREEN BAY      MOSUNNY   63  50  62 SW14G23   29.75S
EAU CLAIRE     NOT AVBL
BLACK RVR FLS  FAIR      64  47  54 W9        29.81R
MEDFORD        PTSUNNY   52  48  87 W6        29.77S
WAUSAU         CLOUDY    59  47  64 NW25G39   29.76R THUNDER
WIS RAPIDS     CLOUDY    62  48  60 W12G20    29.80S
MARSHFIELD     LGT RAIN  55  46  71 W15G28    29.79R
RICE LAKE      HVY RAIN  56  50  81 NW14      29.79S
$$

...NORTHEAST IOWA...


CITY           SKY/WX    TMP DP  RH WIND       PRES   REMARKS
WATERLOO       PTSUNNY   67  42  40 W14G24    29.89R
DUBUQUE        CLOUDY    68  43  40 NW16      29.87R
DECORAH        MOSUNNY   63  45  51 NW14G26   29.87R
MASON CITY     PTSUNNY   62  45  53 NW20G29   29.93S
CHARLES CITY   PTSUNNY   64  43  45 W17G23    29.90S
OELWEIN        CLOUDY    66  45  45 NW23G29   29.89R
$$

...ELSEWHERE IN IOWA...


CITY           SKY/WX    TMP DP  RH WIND       PRES   REMARKS
DES MOINES     MOSUNNY   72  41  32 NW18G24   29.93R
IOWA CITY      MOSUNNY   73  43  33 NW12G23   29.90R
FORT DODGE     PTSUNNY   64  45  48 NW14G23   29.95S
MARSHALLTOWN   PTSUNNY   67  44  43 NW18      29.91R
CEDAR RAPIDS   MOSUNNY   68  44  42 W18G29    29.88R
$$

...NORTHERN ILLINOIS...


CITY           SKY/WX    TMP DP  RH WIND       PRES   REMARKS
CHICAGO-OHARE  MOSUNNY   72  42  34 W13G23    29.84S
CHICAGO-MIDWAY MOSUNNY   74  44  34 W14G24    29.85R
MOLINE         SUNNY     73  42  32 W13G26    29.87R
ROCKFORD       MOSUNNY   71  45  39 W12G20    29.86R
PEORIA         SUNNY     75  40  28 W10       29.90R
$$

NOTE: "FAIR" INDICATES FEW OR NO CLOUDS BELOW 12,000 FEET WITH NO
SIGNIFICANT WEATHER AND/OR OBSTRUCTIONS TO VISIBILITY. WIND
SPEEDS ARE IN MILES-PER-HOUR.




USA.gov is the U.S. government's official web portal to all federal, state and local government web resources and services.